Theta_e
316 316 317 316 316 317 317 318 318 318 318 319 320 320 319 317 316 305 300 301 305 317 314 306 305 301 299 298 302 303 293 292 295 294 296 299 299 299 298 299 296 297 298 301 308
312 312 312 312 313 314 315 315 316 316 317 317 319 318 317 317 306 300 308 313 316 318 302 299 299 298 294 296 298 298 293 296 299 298 295 296 297 297 296 295 292 294 295 300 308
309 308 309 309 310 311 312 313 314 314 315 316 317 317 317 312 296 294 313 316 318 316 305 303 301 297 293 295 296 297 294 300 299 296 295 295 294 292 294 293 295 296 295 299 302
306 306 307 308 308 309 310 311 312 312 314 315 317 316 315 304 283 296 318 316 316 308 304 302 297 292 293 292 296 293 299 300 302 297 295 294 293 292 293 296 293 297 296 297 299
307 307 307 307 307 308 309 310 311 311 312 314 316 315 306 293 292 302 314 312 307 304 300 298 293 292 291 292 293 292 296 299 301 299 295 293 292 292 291 294 292 293 295 294 297
306 305 305 306 306 307 308 308 309 310 311 312 315 314 295 285 297 301 300 302 301 299 298 298 294 294 293 292 291 293 296 297 295 293 293 291 290 290 291 292 292 292 293 293 293
304 304 304 305 305 306 307 309 310 311 311 312 315 309 297 289 296 298 300 297 299 299 296 299 298 294 295 291 292 291 289 289 289 292 292 290 287 286 291 291 291 290 291 292 292
303 302 303 303 304 305 307 309 312 312 312 313 314 303 288 296 295 297 298 296 298 301 298 299 298 295 293 293 290 287 286 282 289 290 290 291 288 290 289 288 288 288 288 289 291
303 303 303 304 304 306 308 311 312 312 312 315 302 293 286 300 292 295 297 294 296 297 297 299 295 290 291 286 283 284 280 281 284 288 287 285 286 288 284 284 285 285 285 287 288
303 303 303 303 304 306 309 310 312 308 310 309 303 287 290 287 292 294 295 297 294 292 292 290 288 284 283 284 278 280 279 280 280 282 283 281 283 286 285 284 283 283 284 285 286
302 302 303 303 304 306 303 297 291 290 294 290 290 288 290 292 294 293 295 295 293 289 283 286 282 280 283 283 284 281 279 278 280 283 282 281 283 286 285 284 284 284 283 284 286
302 302 302 303 304 304 299 293 294 297 288 294 295 294 296 293 290 290 296 289 288 282 284 282 279 285 286 285 284 283 280 279 282 284 282 281 281 283 284 286 288 287 285 285 285
302 302 302 302 302 295 293 293 298 297 290 290 295 294 292 293 290 289 292 289 286 282 282 279 282 287 285 283 282 281 280 280 280 281 281 279 279 280 283 285 284 285 288 288 287
302 302 302 301 292 290 293 296 297 297 274 280 288 290 291 290 285 292 293 288 285 282 282 281 285 284 282 282 283 279 284 284 282 278 273 279 271 279 281 284 284 285 284 286 287
302 301 301 300 289 288 293 296 296 292 263 280 286 294 291 287 286 287 291 288 282 282 281 279 280 281 281 283 285 280 283 282 281 277 275 275 273 278 279 282 284 286 284 285 287
301 301 300 292 290 292 295 295 294 271 262 278 286 285 284 285 285 286 286 288 286 283 282 281 283 283 282 284 285 285 283 282 280 277 265 275 274 276 278 283 285 285 285 284 284
301 300 295 294 285 293 295 288 270 264 276 275 281 284 282 282 282 282 281 280 278 274 276 279 280 283 285 280 284 284 280 273 267 264 267 276 274 278 283 284 286 286 286 284 284
300 298 292 293 291 293 291 277 261 260 264 281 284 283 280 282 282 281 279 276 279 277 274 274 274 280 283 282 279 281 281 273 264 265 270 276 272 279 285 286 286 286 285 285 286
298 286 286 292 291 292 282 264 264 268 281 283 281 272 272 279 280 279 277 277 279 280 274 273 276 280 282 284 284 280 277 282 273 265 267 274 278 282 285 284 285 285 284 284 285
285 282 284 289 289 288 275 271 271 282 282 283 275 273 266 271 278 277 276 280 280 282 282 279 272 279 280 282 282 280 283 277 275 266 262 271 273 277 283 284 284 285 285 284 285
283 278 285 289 289 279 267 267 279 282 281 280 280 278 280 277 279 275 278 281 282 282 282 281 278 277 279 277 277 277 272 277 280 276 266 264 273 281 284 285 284 285 285 284 285
281 270 284 286 273 262 264 277 281 279 279 280 280 280 278 276 271 277 278 279 281 281 278 283 281 274 276 280 281 281 278 278 276 271 273 271 276 284 282 284 285 286 286 285 286
274 275 284 282 262 261 269 276 278 278 277 277 277 278 277 270 270 274 277 283 281 278 276 282 274 265 274 276 277 277 278 279 277 278 276 267 274 283 283 282 284 285 285 285 286
274 268 272 275 274 271 265 268 273 279 278 279 278 278 273 267 273 266 273 279 279 279 284 286 278 270 272 275 276 275 279 279 278 273 273 276 279 285 287 287 286 285 285 285 284
278 270 270 264 267 272 274 273 273 269 277 279 275 275 271 262 264 264 270 274 276 279 279 277 269 276 275 279 277 276 277 280 278 278 275 278 278 282 286 287 290 283 283 282 283
275 275 276 269 274 273 273 270 273 272 273 274 271 274 273 265 269 262 265 268 271 272 273 277 268 271 270 277 281 279 280 277 280 281 280 281 279 283 285 285 282 284 280 282 282
286 285 280 278 274 272 272 272 273 276 276 277 275 270 273 274 273 275 276 277 274 268 267 269 271 269 265 275 278 276 279 280 276 275 277 274 281 285 284 284 285 285 280 281 282
Wind_Speed
18 19 19 19 19 20 19 19 18 17 17 18 18 17 12 12 11 3 6 8 6 7 6 4 3 3 3 3 4 4 2 8 10 8 6 5 3 1 1 4 3 1 6 4 14
18 18 20 19 19 20 21 21 20 20 20 20 19 18 12 10 3 7 9 7 6 8 4 6 5 5 3 4 4 5 6 9 4 5 4 2 1 3 1 2 1 1 1 6 15
18 18 19 20 21 21 21 21 21 21 21 21 20 16 8 4 4 6 3 7 8 5 1 2 3 5 3 4 5 6 10 7 3 4 3 2 2 2 2 4 5 8 6 11 12
18 18 19 19 20 20 21 21 22 22 21 21 20 12 4 1 4 1 2 5 4 4 4 2 3 6 5 6 5 4 7 4 8 3 2 3 2 3 4 4 5 7 8 13 13
17 18 19 20 21 22 22 22 22 22 21 19 18 8 2 1 9 1 4 3 4 3 4 5 4 4 5 5 2 6 4 5 7 7 5 1 6 5 6 6 1 2 4 10 14
21 22 22 23 24 24 24 24 23 22 20 18 15 0 1 3 1 4 4 3 2 3 3 5 5 4 3 4 10 3 7 11 5 5 4 5 5 5 6 6 7 6 10 10 9
22 23 23 24 26 26 26 25 23 20 17 15 11 3 2 11 2 2 5 3 2 4 3 4 3 2 2 3 2 3 4 4 5 6 7 4 9 15 7 6 10 12 11 10 12
22 22 23 25 26 27 26 25 23 17 13 11 3 3 7 2 1 2 2 2 1 4 2 3 4 4 2 4 4 3 2 3 3 8 5 9 23 3 8 8 13 11 11 11 13
21 23 25 27 28 27 27 26 18 6 5 6 4 3 8 1 1 3 3 1 1 1 2 2 2 3 1 2 3 3 4 6 7 8 4 7 11 4 2 7 10 10 10 9 9
24 25 27 29 28 27 27 16 5 5 5 2 1 2 3 2 1 1 0 3 1 2 0 2 4 2 1 5 8 5 4 3 5 2 2 4 19 8 7 4 8 8 9 9 10
25 26 27 28 26 24 12 5 8 6 6 3 3 4 2 3 2 3 2 2 2 3 4 2 3 12 12 2 2 2 3 4 3 3 4 9 19 14 10 6 10 9 9 9 14
25 27 29 27 23 18 5 7 5 4 10 5 7 7 9 2 4 2 4 4 3 4 2 3 10 8 4 5 6 6 3 5 6 3 5 6 15 14 10 13 14 15 12 14 6
25 27 29 26 14 6 5 7 6 5 4 8 5 3 2 6 5 4 8 3 4 4 6 6 5 1 9 5 6 8 10 6 7 3 4 5 11 8 9 12 8 10 11 11 17
25 27 27 24 7 5 1 9 6 3 5 6 1 1 1 1 2 2 5 2 1 6 5 7 6 3 3 5 7 5 7 12 7 2 5 2 8 6 5 9 7 12 12 14 15
25 26 25 13 4 4 7 11 9 2 6 5 2 3 2 1 0 1 2 2 3 3 5 7 2 4 6 6 9 8 1 5 3 3 2 3 2 8 2 8 11 11 11 13 16
24 25 20 5 3 5 9 9 2 10 7 4 2 2 3 1 1 1 1 1 2 3 4 7 2 3 5 2 1 4 5 6 4 2 3 9 9 9 6 11 7 2 7 11 12
23 24 10 3 5 11 7 3 8 7 5 7 3 4 2 3 3 4 4 4 5 2 4 2 5 3 3 3 3 1 5 2 5 4 8 1 4 14 7 9 6 5 6 8 9
23 21 6 3 6 6 4 7 5 3 5 4 4 5 4 1 4 2 2 3 5 2 1 4 6 8 4 5 7 7 8 5 8 4 5 2 9 10 7 9 8 8 5 7 9
19 5 4 4 8 3 5 5 8 5 5 7 5 6 6 5 1 1 5 5 5 9 9 4 6 1 2 1 1 6 5 4 3 2 3 5 8 11 8 10 7 7 6 10 10
4 4 4 7 8 4 6 4 2 6 7 5 2 3 2 6 6 3 2 3 4 11 3 4 4 1 1 1 0 2 2 3 4 3 5 6 7 7 6 8 5 6 8 8 7
4 5 4 11 3 6 4 6 1 5 5 4 3 4 3 3 2 2 4 4 10 10 4 3 5 2 2 7 8 3 1 2 6 5 5 2 8 9 11 6 7 8 8 8 8
2 4 5 5 5 2 2 3 7 3 2 3 2 3 3 6 3 4 5 1 10 4 7 5 4 4 10 4 5 4 8 8 7 7 4 3 13 3 3 6 5 8 7 6 7
1 3 4 5 3 3 5 4 3 1 3 2 2 1 2 1 3 2 5 5 11 12 6 9 5 2 5 4 2 5 6 5 4 3 15 4 8 2 4 4 6 7 6 7 6
3 3 6 5 1 5 2 4 3 2 4 4 4 0 2 2 2 6 6 7 7 9 16 6 5 6 11 4 2 5 10 16 7 5 8 23 15 16 18 11 6 6 4 6 6
2 4 5 4 5 2 4 4 4 4 3 3 3 5 6 1 4 5 5 4 5 4 3 4 6 6 16 21 7 5 7 16 18 23 12 20 21 16 20 20 21 4 3 5 7
4 2 2 2 2 3 5 5 11 10 4 7 8 9 6 7 10 7 3 1 5 4 3 1 6 13 14 17 19 19 11 10 21 18 27 18 23 12 13 7 6 8 4 7 9
2 2 2 5 4 5 6 8 10 8 9 16 12 5 8 15 7 14 12 11 8 5 1 3 3 4 8 13 17 14 29 18 7 8 12 17 25 10 18 17 19 16 10 11 12
Wind_Direction
11 4 357 354 349 346 343 341 340 338 335 330 332 328 318 314 315 295 236 226 189 184 136 126 133 162 106 212 202 136 152 226 219 174 233 290 275 89 348 129 62 46 168 187 124
359 357 347 342 339 339 336 335 335 334 333 332 330 326 318 321 289 247 242 251 201 164 137 170 169 144 173 208 207 168 206 228 193 205 227 265 251 328 126 171 65 126 23 105 135
358 350 339 339 338 332 329 329 328 327 328 331 331 330 320 348 316 253 260 202 169 160 32 144 126 147 200 170 213 204 231 233 263 228 199 218 241 303 141 245 220 200 168 156 150
356 351 344 343 337 331 328 326 324 322 323 326 330 332 331 62 301 311 100 156 166 127 124 148 161 161 186 208 216 240 232 240 229 249 226 232 282 294 181 233 332 233 173 159 168
351 349 346 341 336 332 329 325 321 317 318 318 326 326 0 311 256 183 119 115 102 128 179 177 171 169 184 197 231 245 250 227 229 240 237 235 230 236 251 226 309 66 182 191 182
350 345 339 335 332 328 323 318 313 308 306 310 315 283 230 257 271 151 125 110 161 168 195 184 214 219 237 229 188 255 202 251 226 229 223 209 256 134 248 242 233 169 211 217 199
345 343 338 332 328 325 318 313 309 302 296 297 296 158 213 240 348 148 150 197 195 185 181 222 236 220 203 253 213 249 262 274 223 209 224 160 273 233 212 210 223 208 210 217 219
354 347 341 336 329 322 316 311 306 295 291 286 179 122 244 277 169 153 175 300 277 218 232 251 212 255 232 325 346 232 173 215 251 164 231 158 258 224 218 192 234 227 210 205 214
350 346 343 338 332 324 320 314 312 292 251 138 95 139 273 348 238 243 154 225 144 229 260 276 186 200 73 77 333 263 229 222 321 202 150 184 265 234 88 209 236 228 226 212 217
350 347 344 340 333 328 326 324 7 82 75 88 2 30 291 308 343 97 179 144 123 127 56 123 50 103 169 162 222 202 226 244 229 249 227 229 260 257 246 247 252 245 229 220 214
349 346 344 341 337 333 342 17 16 351 32 277 307 288 337 318 36 25 352 100 68 67 173 268 133 218 206 248 255 182 193 241 248 230 189 231 256 261 264 261 261 241 228 226 224
348 346 343 341 337 345 358 68 36 322 312 242 255 243 247 202 310 244 127 160 142 210 132 42 240 225 166 194 235 245 272 261 283 241 187 288 270 264 253 248 232 228 221 218 209
347 346 343 341 338 31 41 59 318 329 271 298 238 243 314 145 215 256 149 159 186 198 200 179 242 301 182 176 198 234 234 243 233 328 242 326 283 240 257 242 234 226 224 207 205
348 348 348 343 39 328 62 338 321 263 62 286 347 320 159 188 213 18 188 162 238 225 182 236 265 211 177 215 166 251 214 229 232 162 236 98 279 261 253 258 222 233 207 211 201
348 350 351 16 308 30 303 323 312 96 28 264 331 300 11 137 271 1 199 110 219 213 125 248 250 204 203 220 163 230 125 185 198 185 20 202 12 269 261 278 255 234 213 207 199
344 347 351 359 359 264 316 311 11 43 262 332 322 2 350 259 229 68 141 329 250 249 213 241 270 221 205 95 312 139 68 51 53 89 323 207 174 269 203 221 250 213 218 201 187
339 340 343 340 317 311 316 22 36 128 310 312 343 3 325 262 280 176 170 184 202 94 248 259 220 205 171 129 65 244 95 310 343 356 226 38 209 246 253 262 248 255 249 202 176
336 333 312 241 318 322 11 50 99 248 243 317 320 303 226 275 252 186 164 260 229 127 103 205 298 173 192 202 180 205 156 192 209 214 265 122 237 246 250 269 252 249 217 167 169
341 334 336 302 333 342 68 64 208 210 289 334 344 53 311 342 325 271 212 223 234 176 183 190 271 49 95 1 119 190 221 180 73 81 35 234 279 288 271 251 252 257 185 185 174
350 347 290 333 326 43 73 236 121 25 332 342 214 127 281 313 359 6 280 219 266 196 171 277 300 44 73 85 52 180 176 111 76 263 269 276 273 240 300 275 243 241 216 192 173
37 9 282 332 34 46 149 226 346 33 358 334 344 320 303 301 262 311 284 346 349 340 213 351 176 220 123 202 181 147 259 42 129 184 217 281 260 218 238 342 250 250 223 199 182
25 3 313 7 49 356 70 341 336 319 20 330 330 350 322 11 317 265 261 53 15 309 351 301 237 234 219 230 218 210 198 175 171 213 240 169 252 198 266 301 301 262 237 204 191
98 269 332 63 99 339 314 307 282 294 298 329 281 165 85 211 321 305 339 68 27 23 9 340 295 341 304 342 348 223 191 202 121 96 232 171 264 334 297 303 334 291 260 229 203
72 348 321 40 115 130 100 289 299 277 274 262 288 57 86 330 247 276 313 308 0 3 14 322 234 209 245 256 111 227 205 199 152 198 223 235 260 295 295 281 281 305 259 243 204
100 244 191 284 306 174 156 180 269 283 263 244 293 221 189 239 311 254 268 321 326 322 68 60 283 331 313 283 254 242 277 219 204 225 201 251 236 243 252 275 289 232 218 193 221
151 196 194 205 214 181 241 210 244 255 191 252 224 244 198 187 204 246 244 189 220 322 41 93 270 322 303 291 247 250 250 232 227 227 237 259 268 226 262 265 268 260 229 217 217
165 182 158 202 186 178 202 216 227 239 232 241 245 188 226 241 219 238 249 265 232 172 217 235 265 343 274 344 299 237 223 223 200 219 220 233 244 253 258 243 244 240 203 218 215